Home   Weather   42°05'N, 91°42'W   Past weeks
Flag for USA

Past Weather in 42°05'N, 91°42'W, USA — Yesterday and Last 2 Weeks

Now
42 °F

Overcast.


Feels Like: 36 °F
Forecast: 49 / 32 °F
Wind: 12 mph from Northwest

Location: Cedar Rapids Municipal Airport

Current Time: Mar 20, 2019 at 8:56:21 pm

Latest Report: Mar 20, 2019 at 7:52 pm


Visibility: 10 mi

Pressure: 29.97 "Hg

Humidity: 85%

Dew Point: 38 °F

Location of 42°05'N, 91°42'WLocation

Past Weather in 42°05'N, 91°42'W — Graph

°F

42°05'N, 91°42'W Temperature Yesterday

Maximum temperature yesterday: 49 °F (at 2:52 pm)
Minimum temperature yesterday: 25 °F (at 5:52 am)
Average temperature yesterday: 38 °F

High & Low Weather Summary for the Past Weeks

 TemperatureHumidityPressure
High52 °F (Mar 13, 5:52 pm)100% (Mar 9, 6:52 am)30.46 "Hg (Mar 9, 6:52 am)
Low2 °F (Mar 6, 5:52 am)41% (Mar 19, 2:52 pm)29.19 "Hg (Mar 14, 9:52 am)
Average32 °F84%30.09 "Hg
* Reported Mar 5 5:52 pm — Mar 20 6:52 pm, 42°05'N, 91°42'W. Weather by CustomWeather, © 2019

Note: Actual official high and low records may vary slightly from our data, if they occured in-between our weather recording intervals... More about our weather records

Advertising

42°05'N, 91°42'W Weather History for the Previous 24 Hours

Scroll right to see more
 ConditionsComfort  
Time TempWeatherWind HumidityBarometerVisibility
6:52 pm
Wed, Mar 20
43 °FOvercast.10 mph82%29.95 "Hg10 mi
5:52 pm43 °FOvercast.8 mph82%29.93 "Hg10 mi
5:20 pm44 °FMostly cloudy.9 mph76%29.92 "Hg10 mi
4:59 pm44 °FOvercast.9 mph76%29.92 "Hg10 mi
4:17 pm45 °FMostly cloudy.22 mph68%29.93 "Hg8 mi
3:52 pm48 °FPassing clouds.18 mph66%29.93 "Hg10 mi
2:52 pm45 °FScattered clouds.15 mph74%29.93 "Hg10 mi
2:44 pm43 °FPartly sunny.13 mph76%29.93 "Hg10 mi
2:30 pm45 °FScattered clouds.15 mph74%29.93 "Hg10 mi
2:12 pm44 °FPartly sunny.14 mph76%29.95 "Hg10 mi
2:01 pm43 °FPartly sunny.15 mph79%29.96 "Hg10 mi
12:52 pm43 °FOvercast.15 mph82%29.99 "Hg9 mi
11:52 am47 °FPartly sunny.13 mph80%30.00 "Hg10 mi
10:52 am46 °FPartly sunny.12 mph83%30.02 "Hg5 mi
9:52 am41 °FFog.10 mph96%30.04 "Hg5 mi
8:52 am37 °FFog.5 mph100%30.05 "Hg5 mi
7:52 am35 °FFog.5 mph100%30.07 "Hg4 mi
6:52 am36 °FFog.5 mph100%30.07 "Hg4 mi
5:52 am36 °FFog.No wind100%30.07 "Hg4 mi
4:52 am36 °FFog.6 mph100%30.08 "Hg6 mi
3:52 am35 °FFog.6 mph100%30.10 "Hg4 mi
2:59 am37 °FLight rain. Fog.3 mph100%30.12 "Hg6 mi
2:16 am37 °FMostly cloudy.No wind100%30.15 "Hg9 mi
1:52 am37 °FLight rain. Overcast.6 mph96%30.17 "Hg8 mi
12:52 am40 °FOvercast.12 mph80%30.18 "Hg10 mi
11:52 pm
Tue, Mar 19
41 °FOvercast.10 mph70%30.19 "Hg10 mi
10:52 pm41 °FMostly cloudy.3 mph65%30.21 "Hg10 mi
9:52 pm42 °FOvercast.3 mph60%30.22 "Hg10 mi
8:52 pm41 °FMostly cloudy.No wind62%30.22 "Hg10 mi
Weather by CustomWeather, © 2019

See weather overview